Time,TemperatureF,DewpointF,PressureIn,WindDirection,WindDirectionDegrees,WindSpeedMPH,WindSpeedGustMPH,Humidity,HourlyPrecipIn,Conditions,Clouds,dailyrainin,SoftwareType,DateUTC
2013-01-30 00:05:00,34.7,33.9,29.39,NNW,333,2.0,2.0,97,0.04,,,0.51,Wunderground v.1.13,2013-01-30 06:05:00,
2013-01-30 00:15:00,34.9,34.1,29.39,NW,311,3.0,3.0,97,0.04,,,0.51,Wunderground v.1.13,2013-01-30 06:15:00,
2013-01-30 00:20:00,34.9,34.1,29.38,NNW,337,3.0,9.0,97,0.04,,,0.51,Wunderground v.1.13,2013-01-30 06:20:00,
2013-01-30 00:30:00,35.0,34.2,29.38,NNE,12,4.0,4.0,97,0.00,,,0.52,Wunderground v.1.13,2013-01-30 06:30:00,
2013-01-30 00:35:00,35.2,34.4,29.37,NW,321,3.0,9.0,97,0.00,,,0.52,Wunderground v.1.13,2013-01-30 06:35:00,
2013-01-30 00:40:00,35.2,34.4,29.37,NNW,347,4.0,9.0,97,0.00,,,0.52,Wunderground v.1.13,2013-01-30 06:40:00,
2013-01-30 00:45:00,35.2,34.4,29.37,North,360,4.0,10.0,97,0.00,,,0.52,Wunderground v.1.13,2013-01-30 06:45:00,
2013-01-30 00:50:00,35.2,34.4,29.38,NNW,346,4.0,9.0,97,0.00,,,0.53,Wunderground v.1.13,2013-01-30 06:50:00,
2013-01-30 00:55:00,35.2,34.4,29.38,North,355,5.0,5.0,97,0.00,,,0.53,Wunderground v.1.13,2013-01-30 06:55:00,
2013-01-30 01:00:00,35.2,34.4,29.38,NNE,14,4.0,4.0,97,0.00,,,0.53,Wunderground v.1.13,2013-01-30 07:00:00,
2013-01-30 01:05:00,35.0,34.2,29.39,NNW,348,3.0,15.0,97,0.00,,,0.53,Wunderground v.1.13,2013-01-30 07:05:00,
2013-01-30 01:15:00,34.9,34.1,29.39,North,355,4.0,15.0,97,0.00,,,0.54,Wunderground v.1.13,2013-01-30 07:15:00,
2013-01-30 01:25:00,34.6,33.6,29.40,North,350,4.0,15.0,96,0.00,,,0.54,Wunderground v.1.13,2013-01-30 07:25:00,
2013-01-30 01:30:00,34.4,33.4,29.40,North,355,4.0,15.0,96,0.00,,,0.54,Wunderground v.1.13,2013-01-30 07:30:00,
2013-01-30 01:40:00,34.1,33.1,29.37,North,360,7.0,15.0,96,0.00,,,0.55,Wunderground v.1.13,2013-01-30 07:40:00,
2013-01-30 01:50:00,34.0,33.0,29.36,NNE,20,5.0,5.0,96,0.00,,,0.55,Wunderground v.1.13,2013-01-30 07:50:00,
2013-01-30 01:55:00,34.0,33.0,29.36,NNE,17,5.0,5.0,96,0.04,,,0.56,Wunderground v.1.13,2013-01-30 07:55:00,
2013-01-30 02:05:00,33.7,32.7,29.35,NNE,25,5.0,5.0,96,0.04,,,0.56,Wunderground v.1.13,2013-01-30 08:05:00,
2013-01-30 02:15:00,33.5,32.5,29.35,NNW,343,5.0,5.0,96,0.00,,,0.56,Wunderground v.1.13,2013-01-30 08:15:00,
2013-01-30 02:25:00,33.5,32.5,29.36,North,11,5.0,5.0,96,0.00,,,0.56,Wunderground v.1.13,2013-01-30 08:25:00,
2013-01-30 02:35:00,33.4,32.4,29.35,NNE,20,6.0,6.0,96,0.00,,,0.56,Wunderground v.1.13,2013-01-30 08:35:00,
2013-01-30 02:45:00,33.4,32.4,29.35,NNE,33,4.0,14.0,96,0.00,,,0.56,Wunderground v.1.13,2013-01-30 08:45:00,
2013-01-30 02:55:00,33.4,32.4,29.36,NNE,18,5.0,14.0,96,0.00,,,0.56,Wunderground v.1.13,2013-01-30 08:55:00,
2013-01-30 03:00:00,33.4,32.4,29.36,North,5,6.0,14.0,96,0.00,,,0.56,Wunderground v.1.13,2013-01-30 09:00:00,
2013-01-30 03:05:00,33.4,32.4,29.37,NNW,334,5.0,13.0,96,0.00,,,0.56,Wunderground v.1.13,2013-01-30 09:05:00,
2013-01-30 03:15:00,33.2,32.2,29.37,NNW,340,3.0,3.0,96,0.00,,,0.56,Wunderground v.1.13,2013-01-30 09:15:00,
2013-01-30 03:20:00,33.2,32.2,29.39,North,349,2.0,13.0,96,0.00,,,0.57,Wunderground v.1.13,2013-01-30 09:20:00,
2013-01-30 03:30:00,33.1,31.8,29.39,North,355,5.0,5.0,95,0.07,,,0.58,Wunderground v.1.13,2013-01-30 09:30:00,
2013-01-30 03:40:00,32.9,31.6,29.39,North,5,3.0,3.0,95,0.05,,,0.58,Wunderground v.1.13,2013-01-30 09:40:00,
2013-01-30 03:50:00,32.8,31.5,29.36,North,5,3.0,13.0,95,0.04,,,0.59,Wunderground v.1.13,2013-01-30 09:50:00,
2013-01-30 04:00:00,32.5,31.2,29.36,North,5,6.0,6.0,95,0.00,,,0.59,Wunderground v.1.13,2013-01-30 10:00:00,
2013-01-30 04:05:00,32.5,31.2,29.38,North,5,4.0,12.0,95,0.00,,,0.59,Wunderground v.1.13,2013-01-30 10:05:00,
2013-01-30 04:15:00,32.5,31.2,29.38,NNW,342,2.0,2.0,95,0.00,,,0.59,Wunderground v.1.13,2013-01-30 10:15:00,
2013-01-30 04:25:00,32.5,31.2,29.40,North,355,2.0,12.0,95,0.00,,,0.60,Wunderground v.1.13,2013-01-30 10:25:00,
2013-01-30 04:35:00,32.4,31.1,29.38,NNE,19,3.0,12.0,95,0.00,,,0.60,Wunderground v.1.13,2013-01-30 10:35:00,
2013-01-30 04:45:00,32.4,31.1,29.38,NNE,17,2.0,12.0,95,0.00,,,0.60,Wunderground v.1.13,2013-01-30 10:45:00,
2013-01-30 04:50:00,32.4,31.1,29.35,North,11,3.0,12.0,95,0.00,,,0.60,Wunderground v.1.13,2013-01-30 10:50:00,
2013-01-30 04:55:00,32.2,30.9,29.35,NNE,13,3.0,3.0,95,0.00,,,0.60,Wunderground v.1.13,2013-01-30 10:55:00,
2013-01-30 05:00:00,32.2,30.9,29.35,North,5,3.0,12.0,95,0.00,,,0.60,Wunderground v.1.13,2013-01-30 11:00:00,
2013-01-30 05:05:00,32.2,30.9,29.32,NNE,14,4.0,4.0,95,0.00,,,0.00,Wunderground v.1.13,2013-01-30 11:05:00,
2013-01-30 05:15:00,32.2,31.2,29.32,North,360,3.0,10.0,96,0.00,,,0.00,Wunderground v.1.13,2013-01-30 11:15:00,
2013-01-30 05:20:00,32.2,30.9,29.31,North,5,3.0,10.0,95,0.00,,,0.00,Wunderground v.1.13,2013-01-30 11:20:00,
2013-01-30 05:25:00,32.1,31.1,29.31,NNW,343,2.0,2.0,96,0.00,,,0.00,Wunderground v.1.13,2013-01-30 11:25:00,
2013-01-30 05:35:00,32.2,31.2,29.34,North,355,2.0,10.0,96,0.00,,,0.00,Wunderground v.1.13,2013-01-30 11:35:00,
2013-01-30 05:45:00,32.2,31.2,29.34,NNW,333,2.0,2.0,96,0.00,,,0.00,Wunderground v.1.13,2013-01-30 11:45:00,
2013-01-30 05:50:00,32.1,31.1,29.34,NW,313,1.0,1.0,96,0.00,,,0.00,Wunderground v.1.13,2013-01-30 11:50:00,
2013-01-30 05:55:00,32.1,31.1,29.34,NW,313,1.0,1.0,96,0.00,,,0.00,Wunderground v.1.13,2013-01-30 11:55:00,
2013-01-30 06:05:00,32.1,31.1,29.34,North,5,1.0,8.0,96,0.00,,,0.00,Wunderground v.1.13,2013-01-30 12:05:00,
2013-01-30 06:15:00,32.1,31.1,29.34,NE,42,3.0,8.0,96,0.00,,,0.00,Wunderground v.1.13,2013-01-30 12:15:00,
2013-01-30 06:25:00,31.9,30.9,29.32,North,355,2.0,2.0,96,0.00,,,0.00,Wunderground v.1.13,2013-01-30 12:25:00,
2013-01-30 06:30:00,31.9,30.9,29.32,NNE,28,2.0,8.0,96,0.00,,,0.00,Wunderground v.1.13,2013-01-30 12:30:00,
2013-01-30 06:40:00,31.9,30.9,29.30,NNE,24,3.0,3.0,96,0.00,,,0.00,Wunderground v.1.13,2013-01-30 12:40:00,
2013-01-30 06:45:00,31.9,30.9,29.30,North,9,2.0,8.0,96,0.00,,,0.00,Wunderground v.1.13,2013-01-30 12:45:00,
2013-01-30 06:50:00,31.9,30.9,29.31,North,350,3.0,3.0,96,0.00,,,0.00,Wunderground v.1.13,2013-01-30 12:50:00,
2013-01-30 06:55:00,31.9,30.9,29.31,NNE,13,3.0,8.0,96,0.00,,,0.00,Wunderground v.1.13,2013-01-30 12:55:00,
2013-01-30 07:00:00,31.9,30.9,29.31,North,9,2.0,8.0,96,0.00,,,0.00,Wunderground v.1.13,2013-01-30 13:00:00,
2013-01-30 07:05:00,31.9,30.9,29.30,North,11,3.0,10.0,96,0.00,,,0.00,Wunderground v.1.13,2013-01-30 13:05:00,
2013-01-30 07:15:00,31.8,30.8,29.30,NNE,25,2.0,2.0,96,0.00,,,0.00,Wunderground v.1.13,2013-01-30 13:15:00,
2013-01-30 07:25:00,31.8,30.8,29.30,North,351,4.0,10.0,96,0.00,,,0.00,Wunderground v.1.13,2013-01-30 13:25:00,
2013-01-30 07:30:00,31.8,30.8,29.30,NNE,30,3.0,10.0,96,0.00,,,0.00,Wunderground v.1.13,2013-01-30 13:30:00,
2013-01-30 07:40:00,31.8,30.8,29.30,North,355,3.0,3.0,96,0.00,,,0.00,Wunderground v.1.13,2013-01-30 13:40:00,
2013-01-30 07:50:00,31.6,30.6,29.29,NNE,19,3.0,10.0,96,0.00,,,0.00,Wunderground v.1.13,2013-01-30 13:50:00,
2013-01-30 07:55:00,31.6,30.6,29.29,NNE,20,3.0,3.0,96,0.00,,,0.00,Wunderground v.1.13,2013-01-30 13:55:00,
2013-01-30 08:05:00,31.5,30.5,29.29,NNE,19,4.0,4.0,96,0.00,,,0.00,Wunderground v.1.13,2013-01-30 14:05:00,
2013-01-30 08:15:00,31.6,30.6,29.29,North,360,1.0,1.0,96,0.00,,,0.00,Wunderground v.1.13,2013-01-30 14:15:00,
2013-01-30 08:25:00,31.5,30.5,29.31,NNW,327,1.0,1.0,96,0.00,,,0.00,Wunderground v.1.13,2013-01-30 14:25:00,
2013-01-30 08:30:00,31.5,30.5,29.31,NNW,327,1.0,1.0,96,0.00,,,0.00,Wunderground v.1.13,2013-01-30 14:30:00,
2013-01-30 08:40:00,31.5,30.5,29.29,North,5,1.0,12.0,96,0.00,,,0.00,Wunderground v.1.13,2013-01-30 14:40:00,
2013-01-30 08:45:00,31.3,30.3,29.29,North,355,3.0,12.0,96,0.00,,,0.00,Wunderground v.1.13,2013-01-30 14:45:00,
2013-01-30 08:50:00,31.3,30.3,29.28,NE,37,4.0,4.0,96,0.00,,,0.00,Wunderground v.1.13,2013-01-30 14:50:00,
2013-01-30 09:00:00,31.3,30.3,29.28,North,360,1.0,1.0,96,0.00,,,0.00,Wunderground v.1.13,2013-01-30 15:00:00,
2013-01-30 09:05:00,31.3,30.3,29.28,North,5,1.0,12.0,96,0.00,,,0.00,Wunderground v.1.13,2013-01-30 15:05:00,
2013-01-30 09:15:00,31.3,30.3,29.28,NNW,341,1.0,1.0,96,0.00,,,0.00,Wunderground v.1.13,2013-01-30 15:15:00,
2013-01-30 09:20:00,31.0,30.0,29.28,North,360,2.0,2.0,96,0.00,,,0.00,Wunderground v.1.13,2013-01-30 15:20:00,
2013-01-30 09:30:00,30.7,29.7,29.28,NNE,31,2.0,12.0,96,0.00,,,0.00,Wunderground v.1.13,2013-01-30 15:30:00,
2013-01-30 09:40:00,30.6,29.6,29.27,NNE,24,3.0,12.0,96,0.00,,,0.00,Wunderground v.1.13,2013-01-30 15:40:00,
2013-01-30 09:50:00,30.6,29.6,29.25,NE,42,6.0,6.0,96,0.00,,,0.00,Wunderground v.1.13,2013-01-30 15:50:00,
2013-01-30 09:55:00,30.4,29.4,29.25,NNE,20,6.0,12.0,96,0.00,,,0.00,Wunderground v.1.13,2013-01-30 15:55:00,
2013-01-30 10:00:00,30.4,29.4,29.25,NNE,15,5.0,5.0,96,0.00,,,0.00,Wunderground v.1.13,2013-01-30 16:00:00,
2013-01-30 10:05:00,30.4,29.4,29.26,North,355,2.0,2.0,96,0.00,,,0.00,Wunderground v.1.13,2013-01-30 16:05:00,
2013-01-30 10:15:00,30.3,29.3,29.26,North,360,2.0,16.0,96,0.00,,,0.00,Wunderground v.1.13,2013-01-30 16:15:00,
2013-01-30 10:25:00,29.7,28.7,29.27,NE,34,5.0,5.0,96,0.00,,,0.00,Wunderground v.1.13,2013-01-30 16:25:00,
2013-01-30 10:30:00,29.7,28.7,29.27,NNE,18,4.0,4.0,96,0.00,,,0.00,Wunderground v.1.13,2013-01-30 16:30:00,
2013-01-30 10:40:00,29.8,28.8,29.28,North,5,3.0,3.0,96,0.00,,,0.00,Wunderground v.1.13,2013-01-30 16:40:00,
2013-01-30 10:45:00,30.0,29.0,29.28,North,355,2.0,2.0,96,0.00,,,0.00,Wunderground v.1.13,2013-01-30 16:45:00,
2013-01-30 10:55:00,30.0,29.0,29.30,NNW,335,2.0,16.0,96,0.00,,,0.00,Wunderground v.1.13,2013-01-30 16:55:00,
2013-01-30 11:05:00,29.5,28.5,29.27,North,5,4.0,12.0,96,0.00,,,0.00,Wunderground v.1.13,2013-01-30 17:05:00,
2013-01-30 11:15:00,29.5,28.5,29.27,North,5,2.0,12.0,96,0.00,,,0.00,Wunderground v.1.13,2013-01-30 17:15:00,
2013-01-30 11:20:00,29.5,28.5,29.28,North,5,2.0,12.0,96,0.00,,,0.00,Wunderground v.1.13,2013-01-30 17:20:00,
2013-01-30 11:25:00,29.4,28.4,29.28,NNW,340,3.0,3.0,96,0.00,,,0.00,Wunderground v.1.13,2013-01-30 17:25:00,
2013-01-30 11:35:00,29.4,28.4,29.28,North,355,3.0,3.0,96,0.00,,,0.00,Wunderground v.1.13,2013-01-30 17:35:00,
2013-01-30 11:40:00,29.3,28.3,29.28,NE,49,3.0,3.0,96,0.00,,,0.00,Wunderground v.1.13,2013-01-30 17:40:00,
2013-01-30 11:50:00,29.0,28.0,29.28,North,355,3.0,3.0,96,0.00,,,0.00,Wunderground v.1.13,2013-01-30 17:50:00,
2013-01-30 12:00:00,29.1,28.1,29.28,NNW,346,3.0,12.0,96,0.00,,,0.00,Wunderground v.1.13,2013-01-30 18:00:00,
2013-01-30 12:05:00,29.0,28.0,29.27,NNW,344,4.0,4.0,96,0.00,,,0.00,Wunderground v.1.13,2013-01-30 18:05:00,
2013-01-30 12:15:00,28.7,27.7,29.27,North,5,5.0,5.0,96,0.00,,,0.00,Wunderground v.1.13,2013-01-30 18:15:00,
2013-01-30 12:25:00,28.8,27.8,29.27,NW,320,3.0,11.0,96,0.00,,,0.00,Wunderground v.1.13,2013-01-30 18:25:00,
2013-01-30 12:35:00,29.0,28.0,29.25,NNW,328,5.0,5.0,96,0.00,,,0.00,Wunderground v.1.13,2013-01-30 18:35:00,
2013-01-30 12:40:00,29.1,28.1,29.25,North,355,5.0,5.0,96,0.00,,,0.00,Wunderground v.1.13,2013-01-30 18:40:00,
2013-01-30 12:50:00,28.8,27.5,29.25,NW,325,5.0,11.0,95,0.00,,,0.00,Wunderground v.1.13,2013-01-30 18:50:00,
2013-01-30 13:00:00,28.4,27.2,29.25,NW,319,5.0,5.0,95,0.00,,,0.00,Wunderground v.1.13,2013-01-30 19:00:00,
2013-01-30 13:05:00,28.1,26.9,29.26,NW,315,4.0,4.0,95,0.00,,,0.01,Wunderground v.1.13,2013-01-30 19:05:00,
2013-01-30 13:15:00,28.1,26.9,29.26,North,355,4.0,14.0,95,0.00,,,0.01,Wunderground v.1.13,2013-01-30 19:15:00,
2013-01-30 13:25:00,27.6,26.1,29.25,NNW,340,5.0,14.0,94,0.00,,,0.01,Wunderground v.1.13,2013-01-30 19:25:00,
2013-01-30 13:30:00,27.5,26.0,29.25,NNW,347,5.0,14.0,94,0.00,,,0.01,Wunderground v.1.13,2013-01-30 19:30:00,
2013-01-30 13:35:00,27.5,26.0,29.25,NNW,338,5.0,5.0,94,0.00,,,0.01,Wunderground v.1.13,2013-01-30 19:35:00,
2013-01-30 13:45:00,27.3,25.8,29.25,NW,325,5.0,14.0,94,0.00,,,0.01,Wunderground v.1.13,2013-01-30 19:45:00,
2013-01-30 13:55:00,27.3,25.8,29.26,NNW,331,4.0,14.0,94,0.00,,,0.01,Wunderground v.1.13,2013-01-30 19:55:00,
2013-01-30 14:05:00,27.0,25.5,29.26,NW,325,6.0,6.0,94,0.00,,,0.01,Wunderground v.1.13,2013-01-30 20:05:00,
2013-01-30 14:15:00,26.9,25.4,29.26,North,350,4.0,15.0,94,0.00,,,0.01,Wunderground v.1.13,2013-01-30 20:15:00,
2013-01-30 14:20:00,26.9,25.1,29.27,NNW,327,4.0,15.0,93,0.00,,,0.01,Wunderground v.1.13,2013-01-30 20:20:00,
2013-01-30 14:30:00,26.7,24.9,29.27,WNW,282,5.0,15.0,93,0.00,,,0.01,Wunderground v.1.13,2013-01-30 20:30:00,
2013-01-30 14:40:00,26.6,24.8,29.27,NNW,338,4.0,15.0,93,0.00,,,0.01,Wunderground v.1.13,2013-01-30 20:40:00,
2013-01-30 14:45:00,26.6,24.8,29.27,NW,319,5.0,15.0,93,0.00,,,0.01,Wunderground v.1.13,2013-01-30 20:45:00,
2013-01-30 14:50:00,26.4,24.7,29.27,WNW,287,6.0,6.0,93,0.00,,,0.01,Wunderground v.1.13,2013-01-30 20:50:00,
2013-01-30 15:00:00,26.4,24.4,29.27,West,279,5.0,15.0,92,0.00,,,0.01,Wunderground v.1.13,2013-01-30 21:00:00,
2013-01-30 15:05:00,26.4,24.4,29.29,NNW,329,5.0,12.0,92,0.00,,,0.01,Wunderground v.1.13,2013-01-30 21:05:00,
2013-01-30 15:15:00,26.1,24.1,29.29,NW,315,6.0,6.0,92,0.00,,,0.01,Wunderground v.1.13,2013-01-30 21:15:00,
2013-01-30 15:20:00,26.3,24.3,29.29,NNE,16,5.0,12.0,92,0.00,,,0.01,Wunderground v.1.13,2013-01-30 21:20:00,
2013-01-30 15:30:00,26.3,24.3,29.29,NW,314,3.0,12.0,92,0.00,,,0.01,Wunderground v.1.13,2013-01-30 21:30:00,
2013-01-30 15:35:00,26.3,24.3,29.29,North,360,4.0,12.0,92,0.00,,,0.01,Wunderground v.1.13,2013-01-30 21:35:00,
2013-01-30 15:45:00,26.1,23.8,29.29,NW,311,4.0,4.0,91,0.00,,,0.01,Wunderground v.1.13,2013-01-30 21:45:00,
2013-01-30 15:55:00,26.0,23.7,29.30,WNW,303,5.0,5.0,91,0.00,,,0.01,Wunderground v.1.13,2013-01-30 21:55:00,
2013-01-30 16:00:00,26.0,24.0,29.30,NW,315,6.0,12.0,92,0.00,,,0.01,Wunderground v.1.13,2013-01-30 22:00:00,
2013-01-30 16:05:00,25.6,23.3,29.31,NW,311,7.0,19.0,91,0.00,,,0.01,Wunderground v.1.13,2013-01-30 22:05:00,
2013-01-30 16:15:00,25.3,23.0,29.31,NW,314,8.0,8.0,91,0.00,,,0.02,Wunderground v.1.13,2013-01-30 22:15:00,
2013-01-30 16:25:00,25.1,22.8,29.31,NNW,328,7.0,19.0,91,0.00,,,0.02,Wunderground v.1.13,2013-01-30 22:25:00,
2013-01-30 16:30:00,25.1,22.8,29.31,NW,315,6.0,19.0,91,0.00,,,0.02,Wunderground v.1.13,2013-01-30 22:30:00,
2013-01-30 16:35:00,25.0,22.7,29.32,NNW,340,6.0,19.0,91,0.00,,,0.02,Wunderground v.1.13,2013-01-30 22:35:00,
2013-01-30 16:40:00,25.0,22.7,29.32,NW,321,7.0,19.0,91,0.00,,,0.02,Wunderground v.1.13,2013-01-30 22:40:00,
2013-01-30 16:45:00,24.8,22.5,29.32,WNW,282,8.0,8.0,91,0.00,,,0.02,Wunderground v.1.13,2013-01-30 22:45:00,
2013-01-30 16:50:00,24.7,22.2,29.34,WNW,287,7.0,7.0,90,0.00,,,0.02,Wunderground v.1.13,2013-01-30 22:50:00,
2013-01-30 16:55:00,24.7,22.4,29.34,NNW,329,6.0,19.0,91,0.00,,,0.02,Wunderground v.1.13,2013-01-30 22:55:00,
2013-01-30 17:00:00,24.5,22.0,29.34,NW,319,7.0,19.0,90,0.00,,,0.02,Wunderground v.1.13,2013-01-30 23:00:00,
2013-01-30 17:05:00,24.4,21.9,29.34,WNW,302,9.0,9.0,90,0.00,,,0.02,Wunderground v.1.13,2013-01-30 23:05:00,
2013-01-30 17:15:00,24.2,21.7,29.34,North,355,6.0,6.0,90,0.00,,,0.02,Wunderground v.1.13,2013-01-30 23:15:00,
2013-01-30 17:25:00,24.2,21.7,29.35,WNW,294,7.0,7.0,90,0.00,,,0.02,Wunderground v.1.13,2013-01-30 23:25:00,
2013-01-30 17:30:00,24.2,21.7,29.35,WNW,291,7.0,18.0,90,0.00,,,0.02,Wunderground v.1.13,2013-01-30 23:30:00,
2013-01-30 17:40:00,24.1,21.6,29.36,WNW,302,6.0,18.0,90,0.00,,,0.02,Wunderground v.1.13,2013-01-30 23:40:00,
2013-01-30 17:45:00,23.9,21.4,29.36,WNW,290,7.0,7.0,90,0.00,,,0.02,Wunderground v.1.13,2013-01-30 23:45:00,
2013-01-30 17:50:00,23.6,20.8,29.37,West,267,7.0,18.0,89,0.00,,,0.02,Wunderground v.1.13,2013-01-30 23:50:00,
2013-01-30 17:55:00,23.2,20.4,29.37,WNW,285,9.0,9.0,89,0.00,,,0.02,Wunderground v.1.13,2013-01-30 23:55:00,
2013-01-30 18:00:00,22.5,19.7,29.37,West,269,10.0,18.0,89,0.00,,,0.02,Wunderground v.1.13,2013-01-31 00:00:00,
2013-01-30 18:05:00,22.2,19.5,29.39,WNW,282,10.0,10.0,89,0.00,,,0.02,Wunderground v.1.13,2013-01-31 00:05:00,
2013-01-30 18:15:00,21.9,19.2,29.39,West,260,9.0,9.0,89,0.00,,,0.02,Wunderground v.1.13,2013-01-31 00:15:00,
2013-01-30 18:20:00,21.8,18.8,29.39,West,273,9.0,9.0,88,0.00,,,0.02,Wunderground v.1.13,2013-01-31 00:20:00,
2013-01-30 18:30:00,21.0,17.7,29.39,WNW,300,9.0,9.0,87,0.00,,,0.02,Wunderground v.1.13,2013-01-31 00:30:00,
2013-01-30 18:35:00,20.6,17.3,29.40,West,268,9.0,22.0,87,0.00,,,0.02,Wunderground v.1.13,2013-01-31 00:35:00,
2013-01-30 18:45:00,20.3,16.8,29.40,WNW,297,8.0,8.0,86,0.00,,,0.02,Wunderground v.1.13,2013-01-31 00:45:00,
2013-01-30 18:55:00,20.2,16.7,29.41,WNW,299,8.0,8.0,86,0.00,,,0.02,Wunderground v.1.13,2013-01-31 00:55:00,
2013-01-30 19:00:00,19.9,16.4,29.41,NW,313,8.0,22.0,86,0.00,,,0.02,Wunderground v.1.13,2013-01-31 01:00:00,
2013-01-30 19:05:00,19.5,15.7,29.42,NW,326,8.0,22.0,85,0.00,,,0.02,Wunderground v.1.13,2013-01-31 01:05:00,
2013-01-30 19:15:00,19.4,15.4,29.42,WNW,292,9.0,9.0,84,0.00,,,0.02,Wunderground v.1.13,2013-01-31 01:15:00,
2013-01-30 19:25:00,19.4,15.4,29.43,West,272,7.0,22.0,84,0.00,,,0.02,Wunderground v.1.13,2013-01-31 01:25:00,
2013-01-30 19:35:00,18.9,14.6,29.43,WNW,297,9.0,22.0,83,0.00,,,0.02,Wunderground v.1.13,2013-01-31 01:35:00,
2013-01-30 19:40:00,18.8,14.5,29.43,WNW,300,9.0,9.0,83,0.00,,,0.02,Wunderground v.1.13,2013-01-31 01:40:00,
2013-01-30 19:50:00,18.6,14.3,29.44,NW,308,10.0,22.0,83,0.00,,,0.02,Wunderground v.1.13,2013-01-31 01:50:00,
2013-01-30 20:00:00,18.6,14.3,29.44,NW,305,7.0,7.0,83,0.00,,,0.02,Wunderground v.1.13,2013-01-31 02:00:00,
2013-01-30 20:05:00,18.4,14.4,29.44,West,279,7.0,22.0,84,0.00,,,0.02,Wunderground v.1.13,2013-01-31 02:05:00,
2013-01-30 20:15:00,18.3,14.3,29.44,West,274,8.0,8.0,84,0.00,,,0.02,Wunderground v.1.13,2013-01-31 02:15:00,
2013-01-30 20:20:00,18.0,14.0,29.45,NW,309,9.0,22.0,84,0.00,,,0.02,Wunderground v.1.13,2013-01-31 02:20:00,
2013-01-30 20:25:00,17.8,13.8,29.45,NW,320,9.0,22.0,84,0.00,,,0.02,Wunderground v.1.13,2013-01-31 02:25:00,
2013-01-30 20:35:00,17.7,13.7,29.46,West,279,8.0,8.0,84,0.00,,,0.02,Wunderground v.1.13,2013-01-31 02:35:00,
2013-01-30 20:45:00,17.3,13.3,29.46,West,276,8.0,8.0,84,0.00,,,0.02,Wunderground v.1.13,2013-01-31 02:45:00,
2013-01-30 20:55:00,16.9,12.6,29.46,NW,325,9.0,22.0,83,0.00,,,0.02,Wunderground v.1.13,2013-01-31 02:55:00,
2013-01-30 21:05:00,16.7,12.4,29.47,WNW,290,9.0,22.0,83,0.00,,,0.02,Wunderground v.1.13,2013-01-31 03:05:00,
2013-01-30 21:15:00,16.4,11.9,29.47,WNW,292,11.0,11.0,82,0.00,,,0.02,Wunderground v.1.13,2013-01-31 03:15:00,
2013-01-30 21:25:00,16.1,11.3,29.48,NW,321,10.0,22.0,81,0.00,,,0.02,Wunderground v.1.13,2013-01-31 03:25:00,
2013-01-30 21:35:00,15.9,11.1,29.49,West,278,9.0,22.0,81,0.00,,,0.02,Wunderground v.1.13,2013-01-31 03:35:00,
2013-01-30 21:45:00,15.7,10.6,29.49,West,281,10.0,10.0,80,0.00,,,0.02,Wunderground v.1.13,2013-01-31 03:45:00,
2013-01-30 21:55:00,15.6,10.5,29.50,WNW,299,9.0,22.0,80,0.00,,,0.02,Wunderground v.1.13,2013-01-31 03:55:00,
2013-01-30 22:05:00,15.6,10.2,29.51,West,269,10.0,20.0,79,0.00,,,0.02,Wunderground v.1.13,2013-01-31 04:05:00,
2013-01-30 22:15:00,15.6,10.2,29.51,NW,324,9.0,20.0,79,0.00,,,0.02,Wunderground v.1.13,2013-01-31 04:15:00,
2013-01-30 22:20:00,15.6,10.2,29.51,NW,311,9.0,20.0,79,0.00,,,0.02,Wunderground v.1.13,2013-01-31 04:20:00,
2013-01-30 22:25:00,15.6,10.0,29.51,NW,308,10.0,20.0,78,0.00,,,0.02,Wunderground v.1.13,2013-01-31 04:25:00,
2013-01-30 22:30:00,15.4,9.8,29.51,West,275,10.0,10.0,78,0.00,,,0.02,Wunderground v.1.13,2013-01-31 04:30:00,
2013-01-30 22:40:00,15.4,9.8,29.52,WNW,299,9.0,20.0,78,0.00,,,0.02,Wunderground v.1.13,2013-01-31 04:40:00,
2013-01-30 22:45:00,15.4,9.8,29.52,West,275,8.0,8.0,78,0.00,,,0.02,Wunderground v.1.13,2013-01-31 04:45:00,
2013-01-30 22:55:00,15.4,9.5,29.53,WNW,284,8.0,8.0,77,0.00,,,0.02,Wunderground v.1.13,2013-01-31 04:55:00,
2013-01-30 23:05:00,15.6,9.7,29.53,West,280,8.0,8.0,77,0.00,,,0.02,Wunderground v.1.13,2013-01-31 05:05:00,
2013-01-30 23:10:00,15.6,9.7,29.53,WNW,284,8.0,8.0,77,0.00,,,0.02,Wunderground v.1.13,2013-01-31 05:10:00,
2013-01-30 23:15:00,15.6,10.0,29.53,West,259,7.0,21.0,78,0.00,,,0.02,Wunderground v.1.13,2013-01-31 05:15:00,
2013-01-30 23:20:00,15.6,9.7,29.54,WNW,293,8.0,21.0,77,0.00,,,0.02,Wunderground v.1.13,2013-01-31 05:20:00,
2013-01-30 23:30:00,15.6,9.7,29.54,West,272,8.0,8.0,77,0.00,,,0.02,Wunderground v.1.13,2013-01-31 05:30:00,
2013-01-30 23:35:00,15.4,9.5,29.55,WSW,246,8.0,8.0,77,0.00,,,0.02,Wunderground v.1.13,2013-01-31 05:35:00,
2013-01-30 23:45:00,15.2,9.3,29.55,WNW,302,8.0,21.0,77,0.00,,,0.02,Wunderground v.1.13,2013-01-31 05:45:00,
2013-01-30 23:55:00,15.2,9.3,29.55,WNW,285,6.0,21.0,77,0.00,,,0.02,Wunderground v.1.13,2013-01-31 05:55:00,